Location: Unspecified
(0.0000°N, 0.0000°E)
Time: 04:19:52
(UTC+00:00)

QB50P2 - Pass Details

Date: 23 March 2026
Orbit: 517 x 528 km, 98.1° (Epoch: 20 April)

Event Time Altitude Azimuth Distance (km) Brightness Sun altitude
Rises 04:16:52 0° 30° (NNE) 2,624 ? -27.4°
Reaches altitude 10° 04:19:10 10° 43° (NE) 1,742 ? -26.9°
Maximum altitude 04:22:24 27° 102° (ESE) 1,010 ? -26.1°
Drops below altitude 10° 04:25:39 10° 161° (SSE) 1,756 ? -25.3°
Sets 04:27:58 0° 173° (S) 2,649 ? -24.7°
